sat.trackr.live / text

‹ back to catalog

STARLINK-35525

NORAD 66134 · 2025-237W

PAYLOAD ACTIVE UNKNOWN

§ Identity

Operator
Country
US
Launch date
2025-10-22
Launch site
AFWTR
Launch vehicle
Mass (kg)
RCS (m²)

Purposes: comms

External: N2YO · Heavens-Above · Gunter

§ Orbital elements

Epoch: 2026-05-25T03:46:44.993280Z

Period
94.10 min
Inclination
53.1591°
Eccentricity
0.0001179
Mean motion
15.30221873 rev/d
Perigee alt
474.3 km
Apogee alt
476.0 km
Semi-major
6,853.3 km
B*
7.9913e-4
RAAN
44.7500°
Arg perigee
115.9909°
Mean anomaly
244.1213°
Rev number
3,431

§ Raw data

STARLINK-355251 66134U 25237W   26145.15746520  .00023399  00000+0  79913-3 0  99942 66134  53.1591  44.7500 0001179 115.9909 244.1213 15.30221873 34318

JSON: /api/v1/satellites/66134 · /tle

For live sub-satellite position, see the globe view (requires WebGL).

§ Visibility from observer

Set your observer location to see the next 7 days of passes ≥ 10°. The values pass through the URL so the page stays shareable.

No JS? Fill the form by hand. The geolocation button needs JavaScript.